SBI4101 UUEE-URSS

Flight info

Callsign SBI4101
Flight time 2h 3m
Altitude 39000
Route EMGA3E EMGAS T828 EKTUT N72 UMSIS N166 ADNET W79 BINOL BINO1K
Aircraft A310/H-SDFGHIM1RTUWXYZ/LB1

Departure

Time 2026-05-06 17:03
Airport Sheremetyevo International Airport (UUEE)

Arrival

Time 2026-05-06 19:06
Airport Sochi International Airport (URSS)
Time Latitude Longitude Altitude Speed Heading
2026-05-06 16:41 55.97994 37.41572 645 ft 0 kts 76°
2026-05-06 16:56 55.97991 37.41547 645 ft 3 kts 76°
2026-05-06 16:56 55.97986 37.41515 645 ft 3 kts 76°
2026-05-06 16:56 55.97983 37.41480 645 ft 3 kts 103°
2026-05-06 16:57 55.97992 37.41448 646 ft 3 kts 138°
2026-05-06 16:57 55.98002 37.41435 648 ft 0 kts 160°
2026-05-06 16:59 55.97996 37.41438 649 ft 3 kts 164°
2026-05-06 16:59 55.97951 37.41454 645 ft 11 kts 169°
2026-05-06 16:59 55.97846 37.41500 645 ft 20 kts 163°
2026-05-06 17:00 55.97696 37.41573 645 ft 18 kts 167°
2026-05-06 17:00 55.97612 37.41684 645 ft 15 kts 88°
2026-05-06 17:00 55.97636 37.41863 645 ft 15 kts 75°
2026-05-06 17:00 55.97668 37.42077 645 ft 22 kts 75°
2026-05-06 17:01 55.97710 37.42353 646 ft 23 kts 75°
2026-05-06 17:01 55.97752 37.42627 646 ft 21 kts 76°
2026-05-06 17:01 55.97742 37.42789 646 ft 11 kts 145°
2026-05-06 17:01 55.97668 37.42829 644 ft 12 kts 164°
2026-05-06 17:02 55.97603 37.42779 645 ft 11 kts 227°
2026-05-06 17:02 55.97576 37.42645 646 ft 16 kts 255°
2026-05-06 17:02 55.97496 37.42094 648 ft 81 kts 254°
2026-05-06 17:02 55.97291 37.40745 647 ft 143 kts 255°
2026-05-06 17:03 55.96985 37.38770 869 ft 173 kts 253°
2026-05-06 17:03 55.96468 37.36917 1672 ft 166 kts 238°
2026-05-06 17:03 55.95798 37.35276 2446 ft 164 kts 235°
2026-05-06 17:03 55.95069 37.33579 2924 ft 180 kts 235°
2026-05-06 17:04 55.94290 37.31754 3521 ft 191 kts 235°
2026-05-06 17:04 55.93476 37.29768 4111 ft 205 kts 236°
2026-05-06 17:04 55.92624 37.27657 4871 ft 214 kts 236°
2026-05-06 17:04 55.91765 37.25470 5805 ft 216 kts 237°
2026-05-06 17:05 55.90892 37.23178 6556 ft 230 kts 237°
2026-05-06 17:05 55.89990 37.20715 7300 ft 244 kts 238°
2026-05-06 17:05 55.89108 37.18089 8218 ft 250 kts 244°
2026-05-06 17:05 55.88362 37.15277 9257 ft 253 kts 246°
2026-05-06 17:06 55.87644 37.12398 10279 ft 255 kts 247°
2026-05-06 17:06 55.86918 37.09485 11231 ft 259 kts 247°
2026-05-06 17:06 55.86255 37.06477 12156 ft 263 kts 259°
2026-05-06 17:06 55.86392 37.03287 13097 ft 269 kts 284°
2026-05-06 17:07 55.87064 37.00138 13952 ft 275 kts 289°
2026-05-06 17:07 55.87770 36.96894 14772 ft 279 kts 287°
2026-05-06 17:07 55.88398 36.93652 15582 ft 283 kts 285°
2026-05-06 17:07 55.88990 36.90292 16414 ft 286 kts 284°
2026-05-06 17:08 55.89555 36.86865 17232 ft 290 kts 284°
2026-05-06 17:08 55.90117 36.83381 18035 ft 294 kts 284°
2026-05-06 17:08 55.90680 36.79859 18761 ft 298 kts 284°
2026-05-06 17:08 55.91225 36.76281 19454 ft 300 kts 278°
2026-05-06 17:09 55.91108 36.72602 20184 ft 301 kts 256°
2026-05-06 17:09 55.90467 36.69012 20823 ft 307 kts 252°
2026-05-06 17:09 55.89789 36.65388 21520 ft 310 kts 254°
2026-05-06 17:09 55.89172 36.61693 22193 ft 314 kts 255°
2026-05-06 17:10 55.88604 36.57923 22888 ft 317 kts 257°
2026-05-06 17:10 55.88052 36.54103 23548 ft 320 kts 256°
2026-05-06 17:10 55.87102 36.50508 24153 ft 326 kts 233°
2026-05-06 17:10 55.85291 36.48030 24701 ft 339 kts 207°
2026-05-06 17:11 55.82940 36.47203 25218 ft 355 kts 184°
2026-05-06 17:11 55.80442 36.47623 25668 ft 366 kts 176°
2026-05-06 17:11 55.77918 36.48429 26189 ft 371 kts 174°
2026-05-06 17:11 55.75398 36.49564 26716 ft 380 kts 160°
2026-05-06 17:12 55.73077 36.51892 27241 ft 388 kts 150°
2026-05-06 17:12 55.70835 36.54614 27720 ft 392 kts 149°
2026-05-06 17:12 55.68559 36.57327 28215 ft 395 kts 151°
2026-05-06 17:12 55.66238 36.59957 28730 ft 398 kts 152°
2026-05-06 17:13 55.63869 36.62534 29134 ft 403 kts 152°
2026-05-06 17:13 55.61442 36.65210 29155 ft 420 kts 147°
2026-05-06 17:13 55.59398 36.69003 29447 ft 434 kts 126°
2026-05-06 17:13 55.57880 36.73607 29653 ft 446 kts 120°
2026-05-06 17:14 55.56421 36.78534 29664 ft 459 kts 120°
2026-05-06 17:14 55.54829 36.83600 29752 ft 471 kts 122°
2026-05-06 17:14 55.53139 36.88601 30098 ft 476 kts 123°
2026-05-06 17:14 55.51427 36.93513 30584 ft 476 kts 123°
2026-05-06 17:15 55.49687 36.98467 31168 ft 475 kts 123°
2026-05-06 17:15 55.47950 37.03410 31779 ft 473 kts 123°
2026-05-06 17:15 55.46222 37.08324 32367 ft 471 kts 123°
2026-05-06 17:15 55.44499 37.13224 32963 ft 469 kts 124°
2026-05-06 17:16 55.42573 37.17810 33576 ft 462 kts 139°
2026-05-06 17:16 55.39998 37.21024 34129 ft 451 kts 158°
2026-05-06 17:16 55.37085 37.23008 34538 ft 448 kts 164°
2026-05-06 17:16 55.34171 37.24969 34934 ft 450 kts 160°
2026-05-06 17:17 55.31334 37.27350 35325 ft 452 kts 155°
2026-05-06 17:17 55.28576 37.30025 35733 ft 453 kts 153°
2026-05-06 17:17 55.25852 37.32796 36136 ft 453 kts 153°
2026-05-06 17:17 55.23128 37.35574 36527 ft 452 kts 153°
2026-05-06 17:18 55.20403 37.38297 36903 ft 452 kts 153°
2026-05-06 17:18 55.17672 37.41030 37267 ft 452 kts 153°
2026-05-06 17:18 55.14956 37.43786 37618 ft 452 kts 153°
2026-05-06 17:18 55.12219 37.46515 37882 ft 454 kts 153°
2026-05-06 17:19 55.09478 37.49274 38111 ft 457 kts 153°
2026-05-06 17:19 55.06713 37.52042 38357 ft 458 kts 153°
2026-05-06 17:19 55.03911 37.54705 38569 ft 460 kts 156°
2026-05-06 17:19 55.01034 37.57146 38723 ft 462 kts 158°
2026-05-06 17:20 54.98132 37.59490 38791 ft 458 kts 158°
2026-05-06 17:20 54.92383 37.64114 38786 ft 459 kts 160°
2026-05-06 17:21 54.86481 37.68288 38788 ft 458 kts 161°
2026-05-06 17:21 54.80562 37.72406 38782 ft 458 kts 160°
2026-05-06 17:22 54.74670 37.76595 38779 ft 458 kts 160°
2026-05-06 17:22 54.68768 37.80758 38788 ft 457 kts 161°
2026-05-06 17:23 54.62810 37.84167 38802 ft 448 kts 178°
2026-05-06 17:23 54.56604 37.83944 38793 ft 447 kts 185°
2026-05-06 17:24 54.50375 37.83888 38787 ft 449 kts 181°
2026-05-06 17:24 54.44144 37.84821 38785 ft 453 kts 164°
2026-05-06 17:24 54.41300 37.87133 38818 ft 456 kts 150°
2026-05-06 17:25 54.38661 37.90214 38797 ft 460 kts 147°
2026-05-06 17:25 54.33274 37.96103 38789 ft 459 kts 153°
2026-05-06 17:26 54.27668 38.01326 38781 ft 458 kts 154°
2026-05-06 17:26 54.22047 38.06441 38788 ft 458 kts 154°
2026-05-06 17:27 54.16451 38.11657 38787 ft 458 kts 154°
2026-05-06 17:27 54.10852 38.16820 38781 ft 458 kts 153°
2026-05-06 17:28 54.05251 38.21962 38786 ft 457 kts 153°
2026-05-06 17:28 53.99688 38.27064 38782 ft 457 kts 154°
2026-05-06 17:29 53.94092 38.32183 38778 ft 457 kts 154°
2026-05-06 17:29 53.88490 38.37296 38780 ft 457 kts 154°
2026-05-06 17:30 53.82893 38.42387 38772 ft 457 kts 154°
2026-05-06 17:30 53.77291 38.47470 38783 ft 457 kts 154°
2026-05-06 17:31 53.71508 38.51726 38797 ft 450 kts 170°
2026-05-06 17:31 53.65299 38.53184 38786 ft 451 kts 174°
2026-05-06 17:32 53.59095 38.54924 38782 ft 452 kts 171°
2026-05-06 17:32 53.53968 38.56673 38778 ft 452 kts 171°
2026-05-06 17:33 53.47783 38.58688 38774 ft 452 kts 171°
2026-05-06 17:33 53.41598 38.60703 38779 ft 453 kts 171°
2026-05-06 17:34 53.35415 38.62697 38778 ft 452 kts 171°
2026-05-06 17:34 53.29229 38.64718 38776 ft 453 kts 171°
2026-05-06 17:35 53.23043 38.66716 38786 ft 453 kts 171°
2026-05-06 17:35 53.16857 38.68698 38788 ft 453 kts 171°
2026-05-06 17:36 53.07571 38.71682 38788 ft 453 kts 171°
2026-05-06 17:36 53.01380 38.73664 38792 ft 453 kts 171°
2026-05-06 17:37 52.95195 38.75639 38792 ft 453 kts 171°
2026-05-06 17:37 52.89004 38.77608 38796 ft 453 kts 170°
2026-05-06 17:38 52.82855 38.79557 38792 ft 453 kts 170°
2026-05-06 17:38 52.76666 38.81518 38794 ft 453 kts 170°
2026-05-06 17:39 52.70472 38.83465 38802 ft 453 kts 170°
2026-05-06 17:39 52.64279 38.85411 38801 ft 453 kts 170°
2026-05-06 17:40 52.58090 38.87352 38802 ft 453 kts 170°
2026-05-06 17:40 52.51896 38.89290 38807 ft 452 kts 170°
2026-05-06 17:41 52.45708 38.91217 38818 ft 452 kts 170°
2026-05-06 17:41 52.39519 38.93147 38817 ft 453 kts 169°
2026-05-06 17:42 52.36537 38.94745 38827 ft 453 kts 152°
2026-05-06 17:42 52.33955 38.97584 38832 ft 454 kts 142°
2026-05-06 17:42 52.28957 39.03995 38806 ft 457 kts 145°
2026-05-06 17:43 52.23682 39.09778 38806 ft 457 kts 148°
2026-05-06 17:43 52.18326 39.15387 38807 ft 457 kts 148°
2026-05-06 17:44 52.13009 39.21060 38805 ft 457 kts 147°
2026-05-06 17:44 52.07689 39.26720 38813 ft 457 kts 148°
2026-05-06 17:45 52.02363 39.32350 38810 ft 457 kts 147°
2026-05-06 17:45 51.97035 39.37960 38811 ft 456 kts 148°
2026-05-06 17:46 51.91736 39.43532 38810 ft 457 kts 148°
2026-05-06 17:46 51.86406 39.49137 38812 ft 456 kts 148°
2026-05-06 17:47 51.81059 39.54723 38808 ft 457 kts 147°
2026-05-06 17:47 51.75715 39.60285 38810 ft 457 kts 147°
2026-05-06 17:48 51.70147 39.65106 38818 ft 455 kts 162°
2026-05-06 17:48 51.64068 39.67955 38819 ft 455 kts 164°
2026-05-06 17:49 51.58073 39.70986 38814 ft 455 kts 162°
2026-05-06 17:49 51.52079 39.74289 38812 ft 455 kts 162°
2026-05-06 17:50 51.46065 39.77512 38814 ft 455 kts 161°
2026-05-06 17:50 51.40051 39.80743 38819 ft 455 kts 162°
2026-05-06 17:51 51.34039 39.83964 38823 ft 456 kts 162°
2026-05-06 17:51 51.28030 39.87187 38821 ft 456 kts 162°
2026-05-06 17:52 51.22014 39.90403 38818 ft 455 kts 162°
2026-05-06 17:52 51.16038 39.93575 38821 ft 455 kts 161°
2026-05-06 17:53 51.10020 39.96750 38825 ft 456 kts 162°
2026-05-06 17:53 51.03992 39.99903 38813 ft 456 kts 161°
2026-05-06 17:54 50.97968 40.03072 38825 ft 456 kts 161°
2026-05-06 17:54 50.91941 40.06242 38827 ft 456 kts 162°
2026-05-06 17:55 50.85913 40.09410 38823 ft 456 kts 162°
2026-05-06 17:55 50.79876 40.12551 38823 ft 456 kts 161°
2026-05-06 17:56 50.73881 40.15671 38823 ft 456 kts 161°
2026-05-06 17:56 50.67844 40.18807 38824 ft 456 kts 161°
2026-05-06 17:57 50.61812 40.21932 38827 ft 456 kts 161°
2026-05-06 17:57 50.55779 40.25049 38827 ft 456 kts 161°
2026-05-06 17:58 50.49743 40.28161 38833 ft 456 kts 161°
2026-05-06 17:58 50.43713 40.31276 38827 ft 456 kts 161°
2026-05-06 17:59 50.37680 40.34371 38827 ft 456 kts 161°
2026-05-06 17:59 50.31641 40.37455 38826 ft 456 kts 161°
2026-05-06 18:00 50.25604 40.40527 38822 ft 457 kts 161°
2026-05-06 18:00 50.19564 40.43596 38823 ft 457 kts 161°
2026-05-06 18:01 50.13556 40.46641 38828 ft 457 kts 161°
2026-05-06 18:01 50.07509 40.49717 38830 ft 457 kts 161°
2026-05-06 18:02 50.01436 40.52701 38841 ft 458 kts 161°
2026-05-06 18:02 49.95378 40.55766 38836 ft 458 kts 161°
2026-05-06 18:03 49.89315 40.58790 38831 ft 458 kts 161°
2026-05-06 18:03 49.83243 40.61818 38834 ft 458 kts 161°
2026-05-06 18:04 49.77210 40.64826 38851 ft 458 kts 161°
2026-05-06 18:04 49.71148 40.67845 38912 ft 457 kts 161°
2026-05-06 18:05 49.65077 40.70847 38949 ft 458 kts 161°
2026-05-06 18:05 49.61982 40.71907 39028 ft 457 kts 176°
2026-05-06 18:05 49.58803 40.71806 39115 ft 458 kts 184°
2026-05-06 18:06 49.52436 40.70929 39246 ft 460 kts 182°
2026-05-06 18:06 49.46041 40.70624 39381 ft 460 kts 180°
2026-05-06 18:07 49.39636 40.70494 39516 ft 460 kts 179°
2026-05-06 18:07 49.33229 40.70366 39663 ft 461 kts 180°
2026-05-06 18:08 49.26808 40.70192 39797 ft 461 kts 180°
2026-05-06 18:08 49.20395 40.70017 39952 ft 461 kts 180°
2026-05-06 18:09 49.13977 40.69847 40084 ft 461 kts 180°
2026-05-06 18:09 49.07551 40.69677 40228 ft 461 kts 180°
2026-05-06 18:10 49.01133 40.69509 40388 ft 461 kts 180°
2026-05-06 18:10 48.94714 40.69341 40526 ft 461 kts 180°
2026-05-06 18:11 48.89392 40.68891 40671 ft 461 kts 188°
2026-05-06 18:11 48.82048 40.66533 40832 ft 462 kts 192°
2026-05-06 18:12 48.75738 40.64554 40847 ft 468 kts 189°
2026-05-06 18:12 48.72498 40.63641 40556 ft 478 kts 189°
2026-05-06 18:12 48.69267 40.62709 40169 ft 479 kts 190°
2026-05-06 18:13 48.65997 40.61734 39791 ft 480 kts 190°
2026-05-06 18:13 48.62706 40.60782 39432 ft 480 kts 189°
2026-05-06 18:13 48.59421 40.59833 39079 ft 481 kts 190°
2026-05-06 18:13 48.56138 40.58872 38986 ft 478 kts 189°
2026-05-06 18:14 48.49529 40.56961 39064 ft 489 kts 189°
2026-05-06 18:14 48.42852 40.55058 39082 ft 487 kts 189°
2026-05-06 18:15 48.36190 40.53169 39090 ft 487 kts 189°
2026-05-06 18:15 48.29522 40.51280 39093 ft 487 kts 189°
2026-05-06 18:16 48.22858 40.49386 39102 ft 487 kts 189°
2026-05-06 18:16 48.16244 40.47516 39104 ft 487 kts 189°
2026-05-06 18:17 48.09574 40.45630 39109 ft 487 kts 189°
2026-05-06 18:17 48.02919 40.43776 39111 ft 486 kts 189°
2026-05-06 18:18 47.96270 40.41913 39110 ft 486 kts 189°
2026-05-06 18:18 47.89617 40.40052 39114 ft 486 kts 189°
2026-05-06 18:19 47.82969 40.38195 39120 ft 486 kts 189°
2026-05-06 18:19 47.76290 40.37349 39128 ft 482 kts 173°
2026-05-06 18:20 47.70760 40.38388 39131 ft 482 kts 171°
2026-05-06 18:20 47.64077 40.39366 39133 ft 483 kts 174°
2026-05-06 18:21 47.57359 40.40066 39130 ft 484 kts 175°
2026-05-06 18:21 47.49548 40.40852 39131 ft 484 kts 175°
2026-05-06 18:22 47.43917 40.41423 39138 ft 484 kts 175°
2026-05-06 18:22 47.37199 40.42106 39141 ft 484 kts 175°
2026-05-06 18:23 47.30475 40.42831 39139 ft 484 kts 174°
2026-05-06 18:23 47.23756 40.43521 39140 ft 484 kts 174°
2026-05-06 18:24 47.17025 40.44240 39140 ft 484 kts 174°
2026-05-06 18:24 47.10343 40.44861 39144 ft 484 kts 176°
2026-05-06 18:25 47.03617 40.45000 39145 ft 483 kts 178°
2026-05-06 18:25 46.96902 40.45089 39148 ft 482 kts 178°
2026-05-06 18:26 46.90193 40.45256 39151 ft 482 kts 178°
2026-05-06 18:26 46.83478 40.45407 39153 ft 482 kts 178°
2026-05-06 18:27 46.76785 40.45540 39340 ft 481 kts 178°
2026-05-06 18:27 46.73440 40.45613 39452 ft 481 kts 178°
2026-05-06 18:27 46.70080 40.45678 39368 ft 484 kts 178°
2026-05-06 18:28 46.66728 40.45757 39220 ft 480 kts 178°
2026-05-06 18:28 46.63394 40.45816 39131 ft 478 kts 178°
2026-05-06 18:28 46.56801 40.45953 39064 ft 476 kts 178°
2026-05-06 18:29 46.50183 40.46102 39060 ft 476 kts 178°
2026-05-06 18:29 46.43547 40.46250 39064 ft 476 kts 178°
2026-05-06 18:30 46.36915 40.46379 39059 ft 476 kts 178°
2026-05-06 18:30 46.30358 40.45297 39071 ft 478 kts 195°
2026-05-06 18:31 46.24021 40.42345 39069 ft 479 kts 196°
2026-05-06 18:31 46.17606 40.39765 39069 ft 478 kts 193°
2026-05-06 18:32 46.11155 40.37370 39067 ft 478 kts 193°
2026-05-06 18:32 46.04708 40.34987 39065 ft 478 kts 194°
2026-05-06 18:33 45.98265 40.32549 39064 ft 478 kts 193°
2026-05-06 18:33 45.91874 40.30142 39068 ft 478 kts 193°
2026-05-06 18:34 45.85391 40.27710 39068 ft 478 kts 193°
2026-05-06 18:34 45.79002 40.25321 39073 ft 478 kts 193°
2026-05-06 18:35 45.72717 40.22272 39077 ft 479 kts 205°
2026-05-06 18:35 45.66831 40.17799 39080 ft 479 kts 207°
2026-05-06 18:36 45.60853 40.13508 39072 ft 479 kts 205°
2026-05-06 18:36 45.54847 40.09390 39073 ft 479 kts 205°
2026-05-06 18:37 45.48884 40.05269 39076 ft 479 kts 205°
2026-05-06 18:37 45.42872 40.01165 39081 ft 478 kts 201°
2026-05-06 18:38 45.39672 40.00013 39099 ft 474 kts 185°
2026-05-06 18:38 45.36382 39.99734 39085 ft 475 kts 181°
2026-05-06 18:38 45.29774 39.99261 39085 ft 476 kts 185°
2026-05-06 18:39 45.23188 39.98157 39077 ft 476 kts 187°
2026-05-06 18:40 45.13302 39.96465 39082 ft 477 kts 186°
2026-05-06 18:40 45.06718 39.95393 39080 ft 476 kts 186°
2026-05-06 18:41 45.00130 39.94312 39081 ft 476 kts 186°
2026-05-06 18:41 44.93535 39.93231 39082 ft 476 kts 186°
2026-05-06 18:42 44.86956 39.92142 39090 ft 476 kts 186°
2026-05-06 18:42 44.80422 39.91070 39097 ft 476 kts 186°
2026-05-06 18:43 44.73833 39.89993 39098 ft 476 kts 186°
2026-05-06 18:43 44.67258 39.88922 39099 ft 476 kts 186°
2026-05-06 18:44 44.60673 39.87852 39102 ft 476 kts 186°
2026-05-06 18:44 44.54087 39.86786 38973 ft 478 kts 186°
2026-05-06 18:44 44.50783 39.86243 38730 ft 477 kts 186°
2026-05-06 18:45 44.47486 39.85715 38351 ft 478 kts 186°
2026-05-06 18:45 44.44181 39.85168 37828 ft 479 kts 186°
2026-05-06 18:45 44.40911 39.84650 37255 ft 479 kts 186°
2026-05-06 18:45 44.37603 39.84096 36667 ft 477 kts 185°
2026-05-06 18:46 44.34316 39.84044 36104 ft 471 kts 169°
2026-05-06 18:46 44.31190 39.85279 35538 ft 465 kts 157°
2026-05-06 18:46 44.28187 39.86967 34985 ft 465 kts 156°
2026-05-06 18:46 44.25146 39.88529 34418 ft 466 kts 159°
2026-05-06 18:47 44.22045 39.89856 33809 ft 466 kts 162°
2026-05-06 18:47 44.18918 39.91059 33120 ft 467 kts 162°
2026-05-06 18:47 44.15778 39.92245 32430 ft 468 kts 162°
2026-05-06 18:47 44.12634 39.93443 31760 ft 469 kts 162°
2026-05-06 18:48 44.09489 39.94691 31102 ft 471 kts 161°
2026-05-06 18:48 44.06340 39.95954 30456 ft 473 kts 161°
2026-05-06 18:48 44.03175 39.97191 29739 ft 472 kts 162°
2026-05-06 18:48 44.00017 39.98440 28989 ft 469 kts 162°
2026-05-06 18:49 43.96892 39.99679 28246 ft 466 kts 162°
2026-05-06 18:49 43.93777 40.00897 27517 ft 464 kts 162°
2026-05-06 18:49 43.90682 40.02113 26804 ft 460 kts 162°
2026-05-06 18:49 43.87658 40.03315 26106 ft 456 kts 162°
2026-05-06 18:50 43.84583 40.04552 25375 ft 452 kts 162°
2026-05-06 18:50 43.81622 40.05762 24681 ft 448 kts 162°
2026-05-06 18:50 43.78635 40.06986 23986 ft 446 kts 163°
2026-05-06 18:50 43.75664 40.08178 23229 ft 442 kts 163°
2026-05-06 18:51 43.72719 40.09358 22469 ft 438 kts 163°
2026-05-06 18:51 43.69810 40.10489 21877 ft 433 kts 167°
2026-05-06 18:51 43.66821 40.10675 21276 ft 430 kts 188°
2026-05-06 18:51 43.64024 40.09354 20770 ft 425 kts 208°
2026-05-06 18:52 43.61540 40.07162 20330 ft 422 kts 213°
2026-05-06 18:52 43.59054 40.05014 19827 ft 421 kts 210°
2026-05-06 18:52 43.56473 40.03130 19267 ft 418 kts 206°
2026-05-06 18:52 43.53849 40.01435 18701 ft 414 kts 204°
2026-05-06 18:53 43.51225 39.99829 18121 ft 411 kts 204°
2026-05-06 18:53 43.48664 39.98234 17458 ft 408 kts 204°
2026-05-06 18:53 43.46091 39.96615 16698 ft 404 kts 204°
2026-05-06 18:53 43.43497 39.95219 15951 ft 397 kts 199°
2026-05-06 18:54 43.40900 39.94050 15173 ft 388 kts 197°
2026-05-06 18:54 43.38351 39.92935 14432 ft 382 kts 197°
2026-05-06 18:54 43.35836 39.91833 13679 ft 376 kts 197°
2026-05-06 18:54 43.33394 39.90733 12871 ft 364 kts 198°
2026-05-06 18:55 43.31027 39.89657 12090 ft 351 kts 198°
2026-05-06 18:55 43.28752 39.88633 11434 ft 337 kts 198°
2026-05-06 18:55 43.26568 39.87666 10812 ft 322 kts 198°
2026-05-06 18:55 43.24477 39.86758 10231 ft 309 kts 198°
2026-05-06 18:56 43.22446 39.85873 9687 ft 305 kts 199°
2026-05-06 18:56 43.20450 39.84977 9261 ft 299 kts 199°
2026-05-06 18:56 43.18492 39.84094 8865 ft 294 kts 199°
2026-05-06 18:56 43.16571 39.83228 8487 ft 287 kts 199°
2026-05-06 18:57 43.14693 39.82381 8149 ft 280 kts 199°
2026-05-06 18:57 43.12861 39.81554 7795 ft 276 kts 199°
2026-05-06 18:57 43.11033 39.80729 7295 ft 277 kts 199°
2026-05-06 18:57 43.09199 39.79902 6774 ft 278 kts 199°
2026-05-06 18:58 43.07350 39.79066 6220 ft 280 kts 199°
2026-05-06 18:58 43.05664 39.77784 5658 ft 278 kts 227°
2026-05-06 18:58 43.04756 39.75556 5120 ft 273 kts 259°
2026-05-06 18:58 43.04828 39.72996 4639 ft 268 kts 283°
2026-05-06 18:59 43.05414 39.70638 4336 ft 257 kts 303°
2026-05-06 18:59 43.06663 39.68984 4044 ft 249 kts 330°
2026-05-06 18:59 43.08276 39.68206 3715 ft 248 kts 352°
2026-05-06 18:59 43.09959 39.68503 3393 ft 248 kts 27°
2026-05-06 19:00 43.11365 39.69852 3077 ft 249 kts 38°
2026-05-06 19:00 43.12731 39.71347 2596 ft 253 kts 37°
2026-05-06 19:00 43.14223 39.72653 2198 ft 254 kts 29°
2026-05-06 19:00 43.15244 39.73415 2105 ft 253 kts 28°
2026-05-06 19:01 43.17340 39.74952 2011 ft 255 kts 28°
2026-05-06 19:01 43.18915 39.76121 1997 ft 258 kts 28°
2026-05-06 19:01 43.20472 39.77281 1998 ft 257 kts 29°
2026-05-06 19:01 43.22043 39.78453 1991 ft 253 kts 29°
2026-05-06 19:02 43.23537 39.79567 1985 ft 235 kts 29°
2026-05-06 19:02 43.24916 39.80596 1990 ft 219 kts 29°
2026-05-06 19:02 43.26258 39.81599 1986 ft 219 kts 29°
2026-05-06 19:02 43.27587 39.82592 1991 ft 216 kts 29°
2026-05-06 19:03 43.28914 39.83584 1986 ft 217 kts 29°
2026-05-06 19:03 43.30238 39.84573 1996 ft 217 kts 29°
2026-05-06 19:03 43.31565 39.85567 1995 ft 217 kts 29°
2026-05-06 19:03 43.32892 39.86559 1993 ft 217 kts 29°
2026-05-06 19:04 43.34214 39.87549 1991 ft 215 kts 29°
2026-05-06 19:04 43.35496 39.88509 1736 ft 210 kts 29°
2026-05-06 19:04 43.36731 39.89435 1462 ft 195 kts 29°
2026-05-06 19:04 43.37883 39.90299 1236 ft 181 kts 28°
2026-05-06 19:05 43.38932 39.91085 1012 ft 163 kts 28°
2026-05-06 19:05 43.39877 39.91794 834 ft 150 kts 28°
2026-05-06 19:05 43.40776 39.92468 660 ft 145 kts 28°
2026-05-06 19:05 43.41663 39.93135 469 ft 144 kts 28°
2026-05-06 19:06 43.42537 39.93795 266 ft 142 kts 28°
2026-05-06 19:06 43.43404 39.94444 104 ft 142 kts 28°
2026-05-06 19:06 43.44217 39.95051 86 ft 113 kts 28°
2026-05-06 19:06 43.44676 39.95390 92 ft 40 kts 27°
2026-05-06 19:07 43.44893 39.95560 96 ft 30 kts 28°
2026-05-06 19:07 43.44988 39.95560 97 ft 19 kts 337°
2026-05-06 19:07 43.45021 39.95538 97 ft 3 kts 333°
2026-05-06 19:07 43.45035 39.95528 97 ft 0 kts 333°
2026-05-06 19:08 43.45043 39.95523 97 ft 2 kts 334°
2026-05-06 19:08 43.45068 39.95498 97 ft 9 kts 311°
2026-05-06 19:08 43.45094 39.95407 98 ft 11 kts 278°
2026-05-06 19:08 43.45090 39.95360 98 ft 0 kts 254°
2026-05-06 19:09 43.45086 39.95346 97 ft 3 kts 250°
2026-05-06 19:09 43.45071 39.95300 96 ft 8 kts 245°
2026-05-06 19:09 43.45030 39.95178 95 ft 20 kts 245°
2026-05-06 19:09 43.44976 39.95060 93 ft 14 kts 235°
2026-05-06 19:10 43.44929 39.94946 91 ft 12 kts 249°
2026-05-06 19:10 43.44895 39.94833 90 ft 14 kts 245°
2026-05-06 19:10 43.44850 39.94703 90 ft 11 kts 243°
2026-05-06 19:10 43.44837 39.94668 90 ft 4 kts 244°
2026-05-06 19:11 43.44813 39.94600 88 ft 13 kts 244°
2026-05-06 19:11 43.44768 39.94465 87 ft 13 kts 245°
2026-05-06 19:11 43.44740 39.94384 86 ft 8 kts 245°
2026-05-06 19:11 43.44741 39.94359 85 ft 4 kts 284°
2026-05-06 19:12 43.44774 39.94327 85 ft 8 kts 329°
2026-05-06 19:12 43.44789 39.94316 84 ft 0 kts 334°